contact:dominique.lefevre@mio.osupytheas.fr, maurice.libes@osupytheas.fr, didier.mallarino@osupytheas.fr
Project:EMSO http://www.emso-fr.org/EMSO-France
Depth: 2436.0 m
Title:EMSO Ligure Ouest : Data MII capteur MICROCAT
DateTime_Computer,Latitude,Longitude,Temperature,Conductivity,Pressure,DateTime_Instrument
DateTime_Computer,Latitude,Longitude,degC,S m-1,dbar,DateTime_Instrument
2022-11-06T00:02:09Z,42.805,6.029,13.3010,4.60057,2470.53,2022-11-06T02:04:06Z
2022-11-06T00:05:12Z,42.805,6.029,13.3009,4.60057,2470.507,2022-11-06T02:07:09Z
2022-11-06T00:08:15Z,42.805,6.029,13.3011,4.60057,2470.483,2022-11-06T02:10:12Z
2022-11-06T00:11:18Z,42.805,6.029,13.3012,4.60057,2470.507,2022-11-06T02:13:15Z
2022-11-06T00:14:21Z,42.805,6.029,13.3009,4.60057,2470.507,2022-11-06T02:16:18Z
2022-11-06T00:17:24Z,42.805,6.029,13.3014,4.60057,2470.53,2022-11-06T02:19:21Z
2022-11-06T00:20:27Z,42.805,6.029,13.3011,4.60059,2470.497,2022-11-06T02:22:24Z
2022-11-06T00:23:30Z,42.805,6.029,13.3011,4.60057,2470.507,2022-11-06T02:25:27Z
2022-11-06T00:26:33Z,42.805,6.029,13.3011,4.60056,2470.52,2022-11-06T02:28:31Z
2022-11-06T00:29:36Z,42.805,6.029,13.3012,4.60057,2470.497,2022-11-06T02:31:34Z
2022-11-06T00:32:39Z,42.805,6.029,13.3011,4.60056,2470.52,2022-11-06T02:34:37Z
2022-11-06T00:35:42Z,42.805,6.029,13.3015,4.60058,2470.52,2022-11-06T02:37:40Z
2022-11-06T00:38:46Z,42.805,6.029,13.3015,4.60056,2470.544,2022-11-06T02:40:43Z
2022-11-06T00:41:49Z,42.805,6.029,13.3016,4.60057,2470.52,2022-11-06T02:43:46Z
2022-11-06T00:44:52Z,42.805,6.029,13.3011,4.60056,2470.553,2022-11-06T02:46:49Z
2022-11-06T00:47:55Z,42.805,6.029,13.3008,4.60057,2470.544,2022-11-06T02:49:52Z
2022-11-06T00:50:58Z,42.805,6.029,13.3013,4.60056,2470.544,2022-11-06T02:52:55Z
2022-11-06T00:54:01Z,42.805,6.029,13.3008,4.60058,2470.507,2022-11-06T02:55:58Z
2022-11-06T00:57:04Z,42.805,6.029,13.3014,4.60056,2470.52,2022-11-06T02:59:01Z
2022-11-06T01:00:07Z,42.805,6.029,13.3011,4.60057,2470.507,2022-11-06T03:02:04Z
2022-11-06T01:03:10Z,42.805,6.029,13.3009,4.60061,2470.507,2022-11-06T03:05:07Z
2022-11-06T01:06:13Z,42.805,6.029,13.3006,4.60057,2470.507,2022-11-06T03:08:11Z
2022-11-06T01:09:16Z,42.805,6.029,13.3012,4.60057,2470.507,2022-11-06T03:11:14Z
2022-11-06T01:12:19Z,42.805,6.029,13.3011,4.60057,2470.544,2022-11-06T03:14:17Z
2022-11-06T01:15:22Z,42.805,6.029,13.3012,4.60056,2470.52,2022-11-06T03:17:20Z
2022-11-06T01:18:25Z,42.805,6.029,13.3010,4.60057,2470.52,2022-11-06T03:20:23Z
2022-11-06T01:21:29Z,42.805,6.029,13.3010,4.60056,2470.52,2022-11-06T03:23:26Z
2022-11-06T01:24:32Z,42.805,6.029,13.3014,4.60057,2470.544,2022-11-06T03:26:29Z
2022-11-06T01:27:35Z,42.805,6.029,13.3013,4.60058,2470.53,2022-11-06T03:29:32Z
2022-11-06T01:30:38Z,42.805,6.029,13.3010,4.60057,2470.53,2022-11-06T03:32:35Z
2022-11-06T01:33:41Z,42.805,6.029,13.3018,4.60056,2470.507,2022-11-06T03:35:38Z
2022-11-06T01:36:44Z,42.805,6.029,13.3008,4.60057,2470.483,2022-11-06T03:38:41Z
2022-11-06T01:39:47Z,42.805,6.029,13.3011,4.60056,2470.507,2022-11-06T03:41:44Z
2022-11-06T01:42:50Z,42.805,6.029,13.3012,4.60056,2470.52,2022-11-06T03:44:47Z
2022-11-06T01:45:53Z,42.805,6.029,13.3010,4.60057,2470.52,2022-11-06T03:47:50Z
2022-11-06T01:48:56Z,42.805,6.029,13.3008,4.60057,2470.553,2022-11-06T03:50:54Z
2022-11-06T01:51:59Z,42.805,6.029,13.3009,4.60056,2470.544,2022-11-06T03:53:57Z
2022-11-06T01:55:02Z,42.805,6.029,13.3012,4.60057,2470.53,2022-11-06T03:57:00Z
2022-11-06T01:58:05Z,42.805,6.029,13.3014,4.60057,2470.507,2022-11-06T04:00:03Z
2022-11-06T02:01:08Z,42.805,6.029,13.3011,4.60058,2470.507,2022-11-06T04:03:06Z
2022-11-06T02:04:12Z,42.805,6.029,13.3014,4.60056,2470.553,2022-11-06T04:06:09Z
2022-11-06T02:07:15Z,42.805,6.029,13.3011,4.60057,2470.53,2022-11-06T04:09:12Z
2022-11-06T02:10:18Z,42.805,6.029,13.3009,4.60057,2470.53,2022-11-06T04:12:15Z
2022-11-06T02:13:21Z,42.805,6.029,13.3014,4.60057,2470.544,2022-11-06T04:15:18Z
2022-11-06T02:16:24Z,42.805,6.029,13.3013,4.60057,2470.53,2022-11-06T04:18:21Z
2022-11-06T02:19:27Z,42.805,6.029,13.3012,4.60056,2470.53,2022-11-06T04:21:24Z
2022-11-06T02:22:30Z,42.805,6.029,13.3014,4.60057,2470.544,2022-11-06T04:24:27Z
2022-11-06T02:25:33Z,42.805,6.029,13.3014,4.60057,2470.544,2022-11-06T04:27:30Z
2022-11-06T02:28:36Z,42.805,6.029,13.3011,4.60057,2470.544,2022-11-06T04:30:33Z
2022-11-06T02:31:39Z,42.805,6.029,13.3009,4.60057,2470.53,2022-11-06T04:33:37Z
2022-11-06T02:34:42Z,42.805,6.029,13.3009,4.60058,2470.591,2022-11-06T04:36:40Z
2022-11-06T02:37:45Z,42.805,6.029,13.3011,4.60057,2470.553,2022-11-06T04:39:43Z
2022-11-06T02:40:48Z,42.805,6.029,13.3011,4.60057,2470.6,2022-11-06T04:42:46Z
2022-11-06T02:43:52Z,42.805,6.029,13.3011,4.60057,2470.567,2022-11-06T04:45:49Z
2022-11-06T02:46:55Z,42.805,6.029,13.3011,4.60057,2470.553,2022-11-06T04:48:52Z
2022-11-06T02:49:58Z,42.805,6.029,13.3014,4.60057,2470.6,2022-11-06T04:51:55Z
2022-11-06T02:53:01Z,42.805,6.029,13.3009,4.60057,2470.577,2022-11-06T04:54:58Z
2022-11-06T02:56:04Z,42.805,6.029,13.3009,4.60056,2470.6,2022-11-06T04:58:01Z
2022-11-06T02:59:07Z,42.805,6.029,13.3013,4.60058,2470.591,2022-11-06T05:01:04Z
2022-11-06T03:02:10Z,42.805,6.029,13.3010,4.60057,2470.567,2022-11-06T05:04:07Z
2022-11-06T03:05:13Z,42.805,6.029,13.3014,4.60057,2470.6,2022-11-06T05:07:10Z
2022-11-06T03:08:16Z,42.805,6.029,13.3012,4.60059,2470.6,2022-11-06T05:10:13Z
2022-11-06T03:11:19Z,42.805,6.029,13.3011,4.60057,2470.577,2022-11-06T05:13:16Z
2022-11-06T03:14:22Z,42.805,6.029,13.3009,4.60060,2470.6,2022-11-06T05:16:20Z
2022-11-06T03:17:25Z,42.805,6.029,13.3009,4.60057,2470.646,2022-11-06T05:19:23Z
2022-11-06T03:20:28Z,42.805,6.029,13.3013,4.60057,2470.6,2022-11-06T05:22:26Z
2022-11-06T03:23:31Z,42.805,6.029,13.3011,4.60057,2470.624,2022-11-06T05:25:29Z
2022-11-06T03:26:35Z,42.805,6.029,13.3013,4.60057,2470.637,2022-11-06T05:28:32Z
2022-11-06T03:29:38Z,42.805,6.029,13.3012,4.60056,2470.646,2022-11-06T05:31:35Z
2022-11-06T03:32:41Z,42.805,6.029,13.3014,4.60058,2470.661,2022-11-06T05:34:38Z
2022-11-06T03:35:44Z,42.805,6.029,13.3015,4.60057,2470.624,2022-11-06T05:37:41Z
2022-11-06T03:38:47Z,42.805,6.029,13.3014,4.60057,2470.637,2022-11-06T05:40:44Z
2022-11-06T03:41:50Z,42.805,6.029,13.3012,4.60058,2470.614,2022-11-06T05:43:47Z
2022-11-06T03:44:53Z,42.805,6.029,13.3012,4.60058,2470.661,2022-11-06T05:46:50Z
2022-11-06T03:47:56Z,42.805,6.029,13.3014,4.60059,2470.6,2022-11-06T05:49:53Z
2022-11-06T03:50:59Z,42.805,6.029,13.3013,4.60058,2470.637,2022-11-06T05:52:56Z
2022-11-06T03:54:02Z,42.805,6.029,13.3009,4.60058,2470.624,2022-11-06T05:56:00Z
2022-11-06T03:57:05Z,42.805,6.029,13.3011,4.60057,2470.624,2022-11-06T05:59:03Z
2022-11-06T04:00:08Z,42.805,6.029,13.3012,4.60058,2470.646,2022-11-06T06:02:06Z
2022-11-06T04:03:11Z,42.805,6.029,13.3012,4.60057,2470.67,2022-11-06T06:05:09Z
2022-11-06T04:06:14Z,42.805,6.029,13.3009,4.60058,2470.637,2022-11-06T06:08:12Z
2022-11-06T04:09:18Z,42.805,6.029,13.3015,4.60058,2470.646,2022-11-06T06:11:15Z
2022-11-06T04:12:21Z,42.805,6.029,13.3012,4.60058,2470.67,2022-11-06T06:14:18Z
2022-11-06T04:15:24Z,42.805,6.029,13.3015,4.60058,2470.646,2022-11-06T06:17:21Z
2022-11-06T04:18:27Z,42.805,6.029,13.3013,4.60057,2470.646,2022-11-06T06:20:24Z
2022-11-06T04:21:30Z,42.805,6.029,13.3012,4.60059,2470.684,2022-11-06T06:23:27Z
2022-11-06T04:24:33Z,42.805,6.029,13.3015,4.60059,2470.646,2022-11-06T06:26:30Z
2022-11-06T04:27:36Z,42.805,6.029,13.3011,4.60058,2470.684,2022-11-06T06:29:33Z
2022-11-06T04:30:39Z,42.805,6.029,13.3015,4.60059,2470.684,2022-11-06T06:32:36Z
2022-11-06T04:33:42Z,42.805,6.029,13.3014,4.60060,2470.646,2022-11-06T06:35:39Z
2022-11-06T04:36:45Z,42.805,6.029,13.3011,4.60059,2470.67,2022-11-06T06:38:43Z
2022-11-06T04:39:48Z,42.805,6.029,13.3013,4.60058,2470.67,2022-11-06T06:41:46Z
2022-11-06T04:42:51Z,42.805,6.029,13.3011,4.60058,2470.67,2022-11-06T06:44:49Z
2022-11-06T04:45:54Z,42.805,6.029,13.3012,4.60058,2470.684,2022-11-06T06:47:52Z
2022-11-06T04:48:57Z,42.805,6.029,13.3011,4.60059,2470.646,2022-11-06T06:50:55Z
2022-11-06T04:52:01Z,42.805,6.029,13.3012,4.60060,2470.684,2022-11-06T06:53:58Z
2022-11-06T04:55:04Z,42.805,6.029,13.3009,4.60058,2470.707,2022-11-06T06:57:01Z
2022-11-06T04:58:07Z,42.805,6.029,13.3013,4.60059,2470.73,2022-11-06T07:00:04Z
2022-11-06T05:01:10Z,42.805,6.029,13.3013,4.60059,2470.73,2022-11-06T07:03:07Z
2022-11-06T05:04:13Z,42.805,6.029,13.3013,4.60058,2470.684,2022-11-06T07:06:10Z
2022-11-06T05:07:16Z,42.805,6.029,13.3014,4.60060,2470.67,2022-11-06T07:09:13Z
2022-11-06T05:10:19Z,42.805,6.029,13.3015,4.60059,2470.693,2022-11-06T07:12:16Z
2022-11-06T05:13:22Z,42.805,6.029,13.3013,4.60060,2470.684,2022-11-06T07:15:19Z
2022-11-06T05:16:25Z,42.805,6.029,13.3014,4.60059,2470.684,2022-11-06T07:18:22Z
2022-11-06T05:19:28Z,42.805,6.029,13.3014,4.60059,2470.693,2022-11-06T07:21:26Z
2022-11-06T05:22:31Z,42.805,6.029,13.3011,4.60059,2470.646,2022-11-06T07:24:29Z
2022-11-06T05:25:34Z,42.805,6.029,13.3011,4.60058,2470.67,2022-11-06T07:27:32Z
2022-11-06T05:28:37Z,42.805,6.029,13.3015,4.60060,2470.661,2022-11-06T07:30:35Z
2022-11-06T05:31:41Z,42.805,6.029,13.3017,4.60061,2470.67,2022-11-06T07:33:38Z
2022-11-06T05:34:44Z,42.805,6.029,13.3011,4.60060,2470.646,2022-11-06T07:36:41Z
2022-11-06T05:37:47Z,42.805,6.029,13.3012,4.60060,2470.707,2022-11-06T07:39:44Z
2022-11-06T05:40:50Z,42.805,6.029,13.3014,4.60059,2470.67,2022-11-06T07:42:47Z
2022-11-06T05:43:53Z,42.805,6.029,13.3011,4.60058,2470.67,2022-11-06T07:45:50Z
2022-11-06T05:46:56Z,42.805,6.029,13.3010,4.60059,2470.684,2022-11-06T07:48:53Z
2022-11-06T05:49:59Z,42.805,6.029,13.3011,4.60059,2470.707,2022-11-06T07:51:56Z
2022-11-06T05:53:02Z,42.805,6.029,13.3014,4.60059,2470.717,2022-11-06T07:54:59Z
2022-11-06T05:56:05Z,42.805,6.029,13.3019,4.60059,2470.67,2022-11-06T07:58:02Z
2022-11-06T05:59:08Z,42.805,6.029,13.3013,4.60059,2470.693,2022-11-06T08:01:06Z
2022-11-06T06:02:11Z,42.805,6.029,13.3011,4.60060,2470.707,2022-11-06T08:04:09Z
2022-11-06T06:05:14Z,42.805,6.029,13.3012,4.60059,2470.707,2022-11-06T08:07:12Z
2022-11-06T06:08:17Z,42.805,6.029,13.3012,4.60060,2470.67,2022-11-06T08:10:15Z
2022-11-06T06:11:20Z,42.805,6.029,13.3014,4.60060,2470.707,2022-11-06T08:13:18Z
2022-11-06T06:14:24Z,42.805,6.029,13.3014,4.60060,2470.67,2022-11-06T08:16:21Z
2022-11-06T06:17:27Z,42.805,6.029,13.3009,4.60059,2470.693,2022-11-06T08:19:24Z
2022-11-06T06:20:30Z,42.805,6.029,13.3015,4.60060,2470.67,2022-11-06T08:22:27Z
2022-11-06T06:23:33Z,42.805,6.029,13.3010,4.60062,2470.67,2022-11-06T08:25:30Z
2022-11-06T06:26:36Z,42.805,6.029,13.3011,4.60060,2470.684,2022-11-06T08:28:33Z
2022-11-06T06:29:39Z,42.805,6.029,13.3014,4.60061,2470.684,2022-11-06T08:31:36Z
2022-11-06T06:32:42Z,42.805,6.029,13.3014,4.60058,2470.67,2022-11-06T08:34:39Z
2022-11-06T06:35:45Z,42.805,6.029,13.3011,4.60059,2470.67,2022-11-06T08:37:42Z
2022-11-06T06:38:48Z,42.805,6.029,13.3017,4.60061,2470.684,2022-11-06T08:40:46Z
2022-11-06T06:41:51Z,42.805,6.029,13.3014,4.60062,2470.684,2022-11-06T08:43:49Z
2022-11-06T06:44:54Z,42.805,6.029,13.3014,4.60064,2470.684,2022-11-06T08:46:52Z
2022-11-06T06:47:57Z,42.805,6.029,13.3012,4.60061,2470.67,2022-11-06T08:49:55Z
2022-11-06T06:51:00Z,42.805,6.029,13.3015,4.60059,2470.646,2022-11-06T08:52:58Z
2022-11-06T06:54:04Z,42.805,6.029,13.3011,4.60059,2470.684,2022-11-06T08:56:01Z
2022-11-06T06:57:07Z,42.805,6.029,13.3011,4.60057,2470.67,2022-11-06T08:59:04Z
2022-11-06T07:00:10Z,42.805,6.029,13.3011,4.60062,2470.661,2022-11-06T09:02:07Z
2022-11-06T07:03:13Z,42.805,6.029,13.3015,4.60059,2470.646,2022-11-06T09:05:10Z
2022-11-06T07:06:16Z,42.805,6.029,13.3012,4.60060,2470.661,2022-11-06T09:08:13Z
2022-11-06T07:09:19Z,42.805,6.029,13.3009,4.60059,2470.693,2022-11-06T09:11:16Z
2022-11-06T07:12:22Z,42.805,6.029,13.3013,4.60060,2470.67,2022-11-06T09:14:19Z
2022-11-06T07:15:25Z,42.805,6.029,13.3011,4.60059,2470.707,2022-11-06T09:17:22Z
2022-11-06T07:18:28Z,42.805,6.029,13.3012,4.60062,2470.693,2022-11-06T09:20:25Z
2022-11-06T07:21:31Z,42.805,6.029,13.3013,4.60061,2470.661,2022-11-06T09:23:29Z
2022-11-06T07:24:34Z,42.805,6.029,13.3014,4.60061,2470.693,2022-11-06T09:26:32Z
2022-11-06T07:27:37Z,42.805,6.029,13.3014,4.60058,2470.693,2022-11-06T09:29:35Z
2022-11-06T07:30:40Z,42.805,6.029,13.3010,4.60060,2470.661,2022-11-06T09:32:38Z
2022-11-06T07:33:43Z,42.805,6.029,13.3015,4.60059,2470.67,2022-11-06T09:35:41Z
2022-11-06T07:36:47Z,42.805,6.029,13.3015,4.60059,2470.67,2022-11-06T09:38:44Z
2022-11-06T07:39:50Z,42.805,6.029,13.3011,4.60061,2470.67,2022-11-06T09:41:47Z
2022-11-06T07:42:53Z,42.805,6.029,13.3013,4.60059,2470.661,2022-11-06T09:44:50Z
2022-11-06T07:45:56Z,42.805,6.029,13.3010,4.60059,2470.646,2022-11-06T09:47:53Z
2022-11-06T07:48:59Z,42.805,6.029,13.3011,4.60060,2470.646,2022-11-06T09:50:56Z
2022-11-06T07:52:02Z,42.805,6.029,13.3010,4.60059,2470.646,2022-11-06T09:53:59Z
2022-11-06T07:55:05Z,42.805,6.029,13.3014,4.60062,2470.67,2022-11-06T09:57:02Z
2022-11-06T07:58:08Z,42.805,6.029,13.3014,4.60062,2470.684,2022-11-06T10:00:05Z
2022-11-06T08:01:11Z,42.805,6.029,13.3013,4.60061,2470.646,2022-11-06T10:03:08Z
2022-11-06T08:04:14Z,42.805,6.029,13.3011,4.60061,2470.646,2022-11-06T10:06:12Z
2022-11-06T08:07:17Z,42.805,6.029,13.3011,4.60059,2470.661,2022-11-06T10:09:15Z
2022-11-06T08:10:20Z,42.805,6.029,13.3012,4.60059,2470.67,2022-11-06T10:12:18Z
2022-11-06T08:13:23Z,42.805,6.029,13.3010,4.60060,2470.637,2022-11-06T10:15:21Z
2022-11-06T08:16:26Z,42.805,6.029,13.3014,4.60060,2470.6,2022-11-06T10:18:24Z
2022-11-06T08:19:30Z,42.805,6.029,13.3018,4.60061,2470.624,2022-11-06T10:21:27Z
2022-11-06T08:22:33Z,42.805,6.029,13.3014,4.60060,2470.684,2022-11-06T10:24:30Z
2022-11-06T08:25:36Z,42.805,6.029,13.3009,4.60061,2470.624,2022-11-06T10:27:33Z
2022-11-06T08:28:39Z,42.805,6.029,13.3013,4.60061,2470.661,2022-11-06T10:30:36Z
2022-11-06T08:31:42Z,42.805,6.029,13.3009,4.60060,2470.624,2022-11-06T10:33:39Z
2022-11-06T08:34:45Z,42.805,6.029,13.3011,4.60060,2470.646,2022-11-06T10:36:42Z
2022-11-06T08:37:48Z,42.805,6.029,13.3011,4.60060,2470.637,2022-11-06T10:39:45Z
2022-11-06T08:40:51Z,42.805,6.029,13.3009,4.60061,2470.684,2022-11-06T10:42:49Z
2022-11-06T08:43:54Z,42.805,6.029,13.3014,4.60061,2470.624,2022-11-06T10:45:52Z
2022-11-06T08:46:57Z,42.805,6.029,13.3014,4.60060,2470.646,2022-11-06T10:48:55Z
2022-11-06T08:50:00Z,42.805,6.029,13.3009,4.60061,2470.624,2022-11-06T10:51:58Z
2022-11-06T08:53:03Z,42.805,6.029,13.3015,4.60060,2470.637,2022-11-06T10:55:01Z
2022-11-06T08:56:07Z,42.805,6.029,13.3011,4.60060,2470.624,2022-11-06T10:58:04Z
2022-11-06T08:59:10Z,42.805,6.029,13.3014,4.60059,2470.614,2022-11-06T11:01:07Z
2022-11-06T09:02:13Z,42.805,6.029,13.3012,4.60060,2470.6,2022-11-06T11:04:10Z
2022-11-06T09:05:16Z,42.805,6.029,13.3011,4.60062,2470.614,2022-11-06T11:07:13Z
2022-11-06T09:08:19Z,42.805,6.029,13.3013,4.60059,2470.646,2022-11-06T11:10:16Z
2022-11-06T09:11:22Z,42.805,6.029,13.3014,4.60061,2470.6,2022-11-06T11:13:19Z
2022-11-06T09:14:25Z,42.805,6.029,13.3013,4.60061,2470.6,2022-11-06T11:16:22Z
2022-11-06T09:17:28Z,42.805,6.029,13.3011,4.60061,2470.6,2022-11-06T11:19:25Z
2022-11-06T09:20:31Z,42.805,6.029,13.3013,4.60061,2470.563,2022-11-06T11:22:29Z
2022-11-06T09:23:34Z,42.805,6.029,13.3011,4.60062,2470.637,2022-11-06T11:25:32Z
2022-11-06T09:26:37Z,42.805,6.029,13.3016,4.60060,2470.6,2022-11-06T11:28:35Z
2022-11-06T09:29:40Z,42.805,6.029,13.3010,4.60061,2470.6,2022-11-06T11:31:38Z
2022-11-06T09:32:43Z,42.805,6.029,13.3011,4.60061,2470.6,2022-11-06T11:34:41Z
2022-11-06T09:35:47Z,42.805,6.029,13.3015,4.60060,2470.614,2022-11-06T11:37:44Z
2022-11-06T09:38:50Z,42.805,6.029,13.3012,4.60060,2470.577,2022-11-06T11:40:47Z
2022-11-06T09:41:53Z,42.805,6.029,13.3013,4.60061,2470.614,2022-11-06T11:43:50Z
2022-11-06T09:44:56Z,42.805,6.029,13.3012,4.60060,2470.6,2022-11-06T11:46:53Z
2022-11-06T09:47:59Z,42.805,6.029,13.3013,4.60060,2470.6,2022-11-06T11:49:56Z
2022-11-06T09:51:02Z,42.805,6.029,13.3009,4.60061,2470.614,2022-11-06T11:52:59Z
2022-11-06T09:54:05Z,42.805,6.029,13.3014,4.60061,2470.591,2022-11-06T11:56:02Z
2022-11-06T09:57:08Z,42.805,6.029,13.3015,4.60062,2470.6,2022-11-06T11:59:05Z
2022-11-06T10:00:11Z,42.805,6.029,13.3013,4.60059,2470.6,2022-11-06T12:02:09Z
2022-11-06T10:03:14Z,42.805,6.029,13.3013,4.60059,2470.6,2022-11-06T12:05:12Z
2022-11-06T10:06:17Z,42.805,6.029,13.3014,4.60060,2470.6,2022-11-06T12:08:15Z
2022-11-06T10:09:20Z,42.805,6.029,13.3014,4.60058,2470.6,2022-11-06T12:11:18Z
2022-11-06T10:12:23Z,42.805,6.029,13.3014,4.60059,2470.6,2022-11-06T12:14:21Z
2022-11-06T10:15:27Z,42.805,6.029,13.3009,4.60058,2470.553,2022-11-06T12:17:24Z
2022-11-06T10:18:30Z,42.805,6.029,13.3014,4.60058,2470.614,2022-11-06T12:20:27Z
2022-11-06T10:21:33Z,42.805,6.029,13.3013,4.60060,2470.553,2022-11-06T12:23:30Z
2022-11-06T10:24:36Z,42.805,6.029,13.3015,4.60059,2470.6,2022-11-06T12:26:33Z
2022-11-06T10:27:39Z,42.805,6.029,13.3011,4.60059,2470.553,2022-11-06T12:29:36Z
2022-11-06T10:30:42Z,42.805,6.029,13.3013,4.60058,2470.6,2022-11-06T12:32:39Z
2022-11-06T10:33:45Z,42.805,6.029,13.3015,4.60061,2470.567,2022-11-06T12:35:42Z
2022-11-06T10:36:48Z,42.805,6.029,13.3012,4.60060,2470.591,2022-11-06T12:38:46Z
2022-11-06T10:39:51Z,42.805,6.029,13.3018,4.60059,2470.53,2022-11-06T12:41:49Z
2022-11-06T10:42:54Z,42.805,6.029,13.3011,4.60059,2470.567,2022-11-06T12:44:52Z
2022-11-06T10:45:57Z,42.805,6.029,13.3012,4.60059,2470.614,2022-11-06T12:47:55Z
2022-11-06T10:49:00Z,42.805,6.029,13.3010,4.60060,2470.591,2022-11-06T12:50:58Z
2022-11-06T10:52:04Z,42.805,6.029,13.3011,4.60060,2470.577,2022-11-06T12:54:01Z
2022-11-06T10:55:07Z,42.805,6.029,13.3015,4.60059,2470.614,2022-11-06T12:57:04Z
2022-11-06T10:58:10Z,42.805,6.029,13.3011,4.60061,2470.591,2022-11-06T13:00:07Z
2022-11-06T11:01:13Z,42.805,6.029,13.3012,4.60059,2470.6,2022-11-06T13:03:10Z
2022-11-06T11:04:16Z,42.805,6.029,13.3012,4.60059,2470.591,2022-11-06T13:06:13Z
2022-11-06T11:07:19Z,42.805,6.029,13.3014,4.60061,2470.577,2022-11-06T13:09:16Z
2022-11-06T11:10:22Z,42.805,6.029,13.3014,4.60060,2470.591,2022-11-06T13:12:19Z
2022-11-06T11:13:25Z,42.805,6.029,13.3014,4.60060,2470.577,2022-11-06T13:15:22Z
2022-11-06T11:16:28Z,42.805,6.029,13.3016,4.60060,2470.577,2022-11-06T13:18:25Z
2022-11-06T11:19:31Z,42.805,6.029,13.3011,4.60059,2470.577,2022-11-06T13:21:29Z
2022-11-06T11:22:34Z,42.805,6.029,13.3010,4.60058,2470.591,2022-11-06T13:24:32Z
2022-11-06T11:25:37Z,42.805,6.029,13.3013,4.60059,2470.577,2022-11-06T13:27:35Z
2022-11-06T11:28:40Z,42.805,6.029,13.3012,4.60057,2470.591,2022-11-06T13:30:38Z
2022-11-06T11:31:44Z,42.805,6.029,13.3012,4.60060,2470.577,2022-11-06T13:33:41Z
2022-11-06T11:34:47Z,42.805,6.029,13.3014,4.60057,2470.591,2022-11-06T13:36:44Z
2022-11-06T11:37:50Z,42.805,6.029,13.3011,4.60058,2470.553,2022-11-06T13:39:47Z
2022-11-06T11:40:53Z,42.805,6.029,13.3014,4.60058,2470.577,2022-11-06T13:42:50Z
2022-11-06T11:43:56Z,42.805,6.029,13.3013,4.60057,2470.553,2022-11-06T13:45:53Z
2022-11-06T11:46:59Z,42.805,6.029,13.3011,4.60059,2470.577,2022-11-06T13:48:56Z
2022-11-06T11:50:02Z,42.805,6.029,13.3014,4.60061,2470.553,2022-11-06T13:51:59Z
2022-11-06T11:53:05Z,42.805,6.029,13.3011,4.60059,2470.553,2022-11-06T13:55:02Z
2022-11-06T11:56:08Z,42.805,6.029,13.3011,4.60058,2470.553,2022-11-06T13:58:06Z
2022-11-06T11:59:11Z,42.805,6.029,13.3014,4.60058,2470.553,2022-11-06T14:01:09Z
2022-11-06T12:02:14Z,42.805,6.029,13.3014,4.60057,2470.553,2022-11-06T14:04:12Z
2022-11-06T12:05:17Z,42.805,6.029,13.3014,4.60059,2470.567,2022-11-06T14:07:15Z
2022-11-06T12:08:20Z,42.805,6.029,13.3014,4.60058,2470.544,2022-11-06T14:10:18Z
2022-11-06T12:11:23Z,42.805,6.029,13.3014,4.60059,2470.567,2022-11-06T14:13:21Z
2022-11-06T12:14:27Z,42.805,6.029,13.3012,4.60059,2470.577,2022-11-06T14:16:24Z
2022-11-06T12:17:30Z,42.805,6.029,13.3012,4.60057,2470.553,2022-11-06T14:19:27Z
2022-11-06T12:20:33Z,42.805,6.029,13.3009,4.60058,2470.553,2022-11-06T14:22:30Z
2022-11-06T12:23:36Z,42.805,6.029,13.3017,4.60059,2470.553,2022-11-06T14:25:33Z
2022-11-06T12:26:39Z,42.805,6.029,13.3013,4.60058,2470.567,2022-11-06T14:28:36Z
2022-11-06T12:29:42Z,42.805,6.029,13.3013,4.60058,2470.544,2022-11-06T14:31:39Z
2022-11-06T12:32:45Z,42.805,6.029,13.3011,4.60059,2470.53,2022-11-06T14:34:42Z
2022-11-06T12:35:48Z,42.805,6.029,13.3014,4.60058,2470.553,2022-11-06T14:37:46Z
2022-11-06T12:38:51Z,42.805,6.029,13.3011,4.60058,2470.53,2022-11-06T14:40:49Z
2022-11-06T12:41:54Z,42.805,6.029,13.3013,4.60061,2470.553,2022-11-06T14:43:52Z
2022-11-06T12:44:57Z,42.805,6.029,13.3011,4.60057,2470.553,2022-11-06T14:46:55Z
2022-11-06T12:48:00Z,42.805,6.029,13.3011,4.60057,2470.567,2022-11-06T14:49:58Z
2022-11-06T12:51:04Z,42.805,6.029,13.3017,4.60057,2470.567,2022-11-06T14:53:01Z
2022-11-06T12:54:07Z,42.805,6.029,13.3011,4.60057,2470.553,2022-11-06T14:56:04Z
2022-11-06T12:57:10Z,42.805,6.029,13.3009,4.60059,2470.553,2022-11-06T14:59:07Z
2022-11-06T13:00:13Z,42.805,6.029,13.3011,4.60058,2470.553,2022-11-06T15:02:10Z
2022-11-06T13:03:16Z,42.805,6.029,13.3010,4.60056,2470.567,2022-11-06T15:05:13Z
2022-11-06T13:06:19Z,42.805,6.029,13.3012,4.60056,2470.516,2022-11-06T15:08:16Z
2022-11-06T13:09:22Z,42.805,6.029,13.3010,4.60057,2470.53,2022-11-06T15:11:19Z
2022-11-06T13:12:25Z,42.805,6.029,13.3013,4.60059,2470.553,2022-11-06T15:14:22Z
2022-11-06T13:15:28Z,42.805,6.029,13.3013,4.60057,2470.591,2022-11-06T15:17:26Z
2022-11-06T13:18:31Z,42.805,6.029,13.3012,4.60056,2470.577,2022-11-06T15:20:29Z
2022-11-06T13:21:34Z,42.805,6.029,13.3015,4.60057,2470.553,2022-11-06T15:23:32Z
2022-11-06T13:24:37Z,42.805,6.029,13.3014,4.60057,2470.516,2022-11-06T15:26:35Z
2022-11-06T13:27:40Z,42.805,6.029,13.3011,4.60057,2470.591,2022-11-06T15:29:38Z
2022-11-06T13:30:44Z,42.805,6.029,13.3014,4.60057,2470.577,2022-11-06T15:32:41Z
2022-11-06T13:33:47Z,42.805,6.029,13.3013,4.60057,2470.577,2022-11-06T15:35:44Z
2022-11-06T13:36:50Z,42.805,6.029,13.3014,4.60057,2470.553,2022-11-06T15:38:47Z
2022-11-06T13:39:53Z,42.805,6.029,13.3011,4.60057,2470.577,2022-11-06T15:41:50Z
2022-11-06T13:42:56Z,42.805,6.029,13.3013,4.60057,2470.614,2022-11-06T15:44:53Z
2022-11-06T13:45:59Z,42.805,6.029,13.3015,4.60057,2470.591,2022-11-06T15:47:56Z
2022-11-06T13:49:02Z,42.805,6.029,13.3011,4.60057,2470.614,2022-11-06T15:50:59Z
2022-11-06T13:52:05Z,42.805,6.029,13.3013,4.60057,2470.577,2022-11-06T15:54:02Z
2022-11-06T13:55:08Z,42.805,6.029,13.3012,4.60057,2470.577,2022-11-06T15:57:06Z
2022-11-06T13:58:11Z,42.805,6.029,13.3012,4.60060,2470.6,2022-11-06T16:00:09Z
2022-11-06T14:01:14Z,42.805,6.029,13.3013,4.60058,2470.614,2022-11-06T16:03:12Z
2022-11-06T14:04:17Z,42.805,6.029,13.3014,4.60057,2470.577,2022-11-06T16:06:15Z
2022-11-06T14:07:20Z,42.805,6.029,13.3013,4.60059,2470.614,2022-11-06T16:09:18Z
2022-11-06T14:10:24Z,42.805,6.029,13.3014,4.60057,2470.6,2022-11-06T16:12:21Z
2022-11-06T14:13:27Z,42.805,6.029,13.3011,4.60058,2470.614,2022-11-06T16:15:24Z
2022-11-06T14:16:30Z,42.805,6.029,13.3012,4.60058,2470.6,2022-11-06T16:18:27Z
2022-11-06T14:19:33Z,42.805,6.029,13.3015,4.60057,2470.646,2022-11-06T16:21:30Z
2022-11-06T14:22:36Z,42.805,6.029,13.3013,4.60057,2470.553,2022-11-06T16:24:33Z
2022-11-06T14:25:39Z,42.805,6.029,13.3014,4.60057,2470.6,2022-11-06T16:27:36Z
2022-11-06T14:28:42Z,42.805,6.029,13.3011,4.60058,2470.624,2022-11-06T16:30:39Z
2022-11-06T14:31:45Z,42.805,6.029,13.3014,4.60061,2470.6,2022-11-06T16:33:43Z
2022-11-06T14:34:48Z,42.805,6.029,13.3012,4.60058,2470.577,2022-11-06T16:36:46Z
2022-11-06T14:37:51Z,42.805,6.029,13.3011,4.60059,2470.6,2022-11-06T16:39:49Z
2022-11-06T14:40:54Z,42.805,6.029,13.3007,4.60062,2470.624,2022-11-06T16:42:52Z
2022-11-06T14:43:57Z,42.805,6.029,13.3014,4.60059,2470.624,2022-11-06T16:45:55Z
2022-11-06T14:47:01Z,42.805,6.029,13.3014,4.60057,2470.624,2022-11-06T16:48:58Z
2022-11-06T14:50:04Z,42.805,6.029,13.3013,4.60059,2470.646,2022-11-06T16:52:01Z
2022-11-06T14:53:07Z,42.805,6.029,13.3015,4.60057,2470.646,2022-11-06T16:55:04Z
2022-11-06T14:56:10Z,42.805,6.029,13.3009,4.60059,2470.646,2022-11-06T16:58:07Z
2022-11-06T14:59:13Z,42.805,6.029,13.3010,4.60058,2470.646,2022-11-06T17:01:10Z
2022-11-06T15:02:16Z,42.805,6.029,13.3014,4.60057,2470.684,2022-11-06T17:04:13Z